DELTA 1 DEB, 13532

Orbit data source: Space-Track

DELTA 1 DEB, 13532 is space debris in LEO originally from a launch on Thu, 29 Jul 1976 UTC launched from the Air Force Western Test Range (AFWTR). Debris objects in space refer to the collection of defunct objects orbiting the Earth. Examples of debris include non-operational satellites, rocket bodies, and fragments generated from explosions, collisions, or faulty payload assembly.

Loading next visibility...
Identifier
13532, 1976-077EE
Orbit
LEO
Country
Flag of USUS
Related business
Manufacturer
Unknown
Mission
Spacecraft
Bus & Motor
Unknown
Mass
Unknown
Launch date (UTC)
1976-07-29 (50 years ago)
Launch vehicle
Unknown
Launch site
Air Force Western Test Range (AFWTR)
Object type
Payload
Rocket body
Debris
Shape & HBR
Unknown shape, 0.1 m
Radar Cross Section
Medium (>0.1 m² and <1 m²)

Expand to show TLE details & history
Last TLE update: 3 days ago

TLE from 3 days ago
0 DELTA 1 DEB
1 13532U 76077EE  26170.32880700  .00000046  00000-0  10240-2 0  9994
2 13532 102.2637 105.4220 0287291 356.2431 154.6510 11.94107787961906
Epoch: 2026-06-19T07:53Z
TLE epoch observation values (Epoch: 2026-06-19T07:53:28.924Z)
Latitude
27.09053°
Longitude
-94.15374°
Altitude
1,921.416 km
Speed
6.842 km/s
True Right ascension
19h 27m 06s
True Declination
26° 58' 15"
Sunlit
Object was in daylight at epoch
Visualization orbit readout
Latitude
Unknown
Longitude
Unknown
Altitude
Unknown
Speed
Unknown
Apparent Right ascension
Unknown
Apparent Declination
Unknown
Sunlit
N/A
Visualization observer readout
Local Sidereal Time
02:18:50
Azimuth
Unknown
Elevation
Unknown
Doppler factor
Unknown
Orbital elements
Apogee altitude
1,937.218 km
Perigee altitude
1,472.776 km
Semi-major axis
8,083.134 km
Eccentricity
0.02873
Inclination
102.2637°
RAAN
105.422°
Arg. of periapsis
356.2431°
True anomaly
156.01597°
Mean anomaly
154.651°
Eccentric anomaly
155.33784°
Mean motion
2.98658 °/min
Orbital period
120.54 mins
BSTAR
0.001024
Loading maneuver chart data...
Computing Atmospheric mass density...
Loading historical data...
Loading historical data...
Loading historical data...
Loading historical data...
Loading historical data...
Loading historical data...
Loading historical data...

Documentation

Showing up to 5 results
|